TGW766 WSSS-VOTR

Flight info

Callsign TGW766
Flight time 3h 38m
Altitude 38000
Route AROSO5B AROSO DCT VKL R461 ISVUR N563 ADKIT T3 GOKUL
Aircraft A20N/M-SDE2E3FGHIRWXY/LB1

Departure

Time 2026-04-15 05:56
Airport Singapore Changi Airport (WSSS)

Arrival

Time 2026-04-15 09:35
Airport Tiruchirappalli International Airport (VOTR)
Time Latitude Longitude Altitude Speed Heading
2026-04-15 05:41 1.36038 103.99243 33 ft 0 kts 293°
2026-04-15 05:48 1.36034 103.99251 31 ft 3 kts 283°
2026-04-15 05:49 1.36034 103.99266 33 ft 3 kts 229°
2026-04-15 05:49 1.36044 103.99277 33 ft 3 kts 275°
2026-04-15 05:49 1.36041 103.99288 33 ft 3 kts 298°
2026-04-15 05:49 1.36029 103.99304 33 ft 3 kts 321°
2026-04-15 05:50 1.36013 103.99313 33 ft 3 kts 354°
2026-04-15 05:50 1.35994 103.99312 33 ft 3 kts 20°
2026-04-15 05:50 1.35969 103.99301 33 ft 1 kts 23°
2026-04-15 05:51 1.35967 103.99301 33 ft 1 kts 23°
2026-04-15 05:53 1.35969 103.99302 33 ft 1 kts 23°
2026-04-15 05:53 1.35988 103.99310 33 ft 4 kts 26°
2026-04-15 05:53 1.36034 103.99330 33 ft 11 kts 23°
2026-04-15 05:53 1.36121 103.99367 33 ft 15 kts 23°
2026-04-15 05:54 1.36230 103.99413 33 ft 18 kts 22°
2026-04-15 05:54 1.36317 103.99490 33 ft 17 kts 54°
2026-04-15 05:54 1.36323 103.99589 33 ft 14 kts 111°
2026-04-15 05:54 1.36283 103.99677 33 ft 13 kts 116°
2026-04-15 05:55 1.36247 103.99759 32 ft 13 kts 112°
2026-04-15 05:55 1.36210 103.99847 33 ft 16 kts 113°
2026-04-15 05:55 1.36136 103.99873 32 ft 0 kts 201°
2026-04-15 05:55 1.36076 103.99849 33 ft 32 kts 202°
2026-04-15 05:56 1.35681 103.99681 32 ft 90 kts 203°
2026-04-15 05:56 1.34935 103.99366 33 ft 141 kts 202°
2026-04-15 05:56 1.33920 103.98936 161 ft 166 kts 201°
2026-04-15 05:56 1.32881 103.98474 675 ft 163 kts 204°
2026-04-15 05:57 1.31823 103.98007 1122 ft 168 kts 203°
2026-04-15 05:57 1.30731 103.97569 1633 ft 170 kts 201°
2026-04-15 05:57 1.29615 103.97157 2133 ft 172 kts 200°
2026-04-15 05:57 1.28456 103.96869 2654 ft 173 kts 181°
2026-04-15 05:58 1.27342 103.97253 3139 ft 176 kts 139°
2026-04-15 05:58 1.26921 103.98386 3403 ft 191 kts 79°
2026-04-15 05:58 1.27583 103.99595 3588 ft 208 kts 54°
2026-04-15 05:58 1.28499 104.00747 4013 ft 214 kts 50°
2026-04-15 05:59 1.29486 104.01884 4520 ft 218 kts 49°
2026-04-15 05:59 1.30510 104.02994 4964 ft 226 kts 41°
2026-04-15 05:59 1.31942 104.03741 5170 ft 242 kts
2026-04-15 05:59 1.33673 104.03723 5394 ft 258 kts 351°
2026-04-15 06:00 1.35495 104.03414 5633 ft 274 kts 347°
2026-04-15 06:00 1.37419 104.03037 5861 ft 290 kts 347°
2026-04-15 06:00 1.39452 104.02639 6088 ft 306 kts 348°
2026-04-15 06:00 1.41583 104.02180 6329 ft 321 kts 344°
2026-04-15 06:01 1.43765 104.01527 6551 ft 335 kts 341°
2026-04-15 06:01 1.46028 104.00794 6843 ft 348 kts 341°
2026-04-15 06:01 1.48369 104.00030 7194 ft 358 kts 341°
2026-04-15 06:01 1.50759 103.99251 7648 ft 364 kts 341°
2026-04-15 06:02 1.53174 103.98466 8115 ft 366 kts 341°
2026-04-15 06:02 1.55614 103.97676 8557 ft 371 kts 341°
2026-04-15 06:02 1.58079 103.96877 8995 ft 375 kts 341°
2026-04-15 06:02 1.60565 103.96071 9482 ft 376 kts 341°
2026-04-15 06:03 1.63062 103.95262 9942 ft 379 kts 341°
2026-04-15 06:03 1.65576 103.94448 10392 ft 381 kts 342°
2026-04-15 06:03 1.68108 103.93629 10802 ft 384 kts 341°
2026-04-15 06:03 1.70652 103.92804 11273 ft 385 kts 342°
2026-04-15 06:04 1.73178 103.91915 11789 ft 385 kts 336°
2026-04-15 06:04 1.75512 103.90612 12267 ft 386 kts 323°
2026-04-15 06:04 1.77476 103.88779 12715 ft 388 kts 310°
2026-04-15 06:04 1.79175 103.86680 13157 ft 389 kts 308°
2026-04-15 06:05 1.80826 103.84525 13604 ft 392 kts 307°
2026-04-15 06:05 1.82484 103.82352 13999 ft 394 kts 307°
2026-04-15 06:05 1.84160 103.80163 14386 ft 397 kts 307°
2026-04-15 06:05 1.85855 103.77959 15055 ft 402 kts 308°
2026-04-15 06:06 1.87564 103.75742 15856 ft 404 kts 308°
2026-04-15 06:06 1.89291 103.73502 16524 ft 409 kts 308°
2026-04-15 06:06 1.91038 103.71235 17186 ft 414 kts 308°
2026-04-15 06:06 1.92806 103.68936 17810 ft 419 kts 308°
2026-04-15 06:07 1.94593 103.66614 18332 ft 424 kts 308°
2026-04-15 06:07 1.96402 103.64261 18834 ft 428 kts 308°
2026-04-15 06:07 1.98225 103.61892 19333 ft 432 kts 308°
2026-04-15 06:07 2.00063 103.59503 19819 ft 435 kts 308°
2026-04-15 06:08 2.01911 103.57101 20300 ft 438 kts 308°
2026-04-15 06:08 2.03777 103.54676 20751 ft 441 kts 308°
2026-04-15 06:08 2.05651 103.52239 21196 ft 444 kts 308°
2026-04-15 06:08 2.07541 103.49783 21623 ft 447 kts 308°
2026-04-15 06:09 2.09447 103.47305 22030 ft 451 kts 308°
2026-04-15 06:09 2.11363 103.44815 22437 ft 454 kts 308°
2026-04-15 06:09 2.13252 103.42276 22851 ft 457 kts 305°
2026-04-15 06:09 2.14845 103.39516 23230 ft 461 kts 296°
2026-04-15 06:10 2.16100 103.36555 23593 ft 463 kts 292°
2026-04-15 06:10 2.17219 103.33528 23914 ft 466 kts 290°
2026-04-15 06:10 2.18258 103.30502 24241 ft 467 kts 289°
2026-04-15 06:10 2.19290 103.27413 24517 ft 470 kts 289°
2026-04-15 06:11 2.20326 103.24309 24846 ft 471 kts 289°
2026-04-15 06:11 2.21374 103.21199 25146 ft 474 kts 289°
2026-04-15 06:11 2.22442 103.18069 25410 ft 476 kts 289°
2026-04-15 06:11 2.23521 103.14936 25714 ft 478 kts 289°
2026-04-15 06:12 2.24613 103.11783 25999 ft 480 kts 289°
2026-04-15 06:12 2.25710 103.08627 26346 ft 481 kts 289°
2026-04-15 06:12 2.26812 103.05457 26645 ft 484 kts 289°
2026-04-15 06:12 2.27918 103.02277 26927 ft 486 kts 289°
2026-04-15 06:13 2.29030 102.99079 27214 ft 488 kts 289°
2026-04-15 06:13 2.30146 102.95865 27503 ft 490 kts 289°
2026-04-15 06:13 2.31267 102.92637 27788 ft 493 kts 289°
2026-04-15 06:13 2.32395 102.89390 28077 ft 495 kts 289°
2026-04-15 06:14 2.33526 102.86130 28366 ft 497 kts 289°
2026-04-15 06:14 2.34664 102.82850 28634 ft 500 kts 289°
2026-04-15 06:14 2.35804 102.79566 28925 ft 501 kts 289°
2026-04-15 06:14 2.36945 102.76276 29283 ft 500 kts 289°
2026-04-15 06:15 2.37695 102.74117 29772 ft 494 kts 288°
2026-04-15 06:15 2.39191 102.69806 30347 ft 490 kts 288°
2026-04-15 06:15 2.40306 102.66589 30626 ft 489 kts 288°
2026-04-15 06:15 2.41045 102.64459 30809 ft 489 kts 288°
2026-04-15 06:16 2.42158 102.61248 31080 ft 488 kts 288°
2026-04-15 06:16 2.43632 102.56999 31440 ft 488 kts 288°
2026-04-15 06:16 2.44741 102.53799 31713 ft 487 kts 288°
2026-04-15 06:16 2.45850 102.50601 31988 ft 487 kts 288°
2026-04-15 06:17 2.46959 102.47403 32261 ft 486 kts 288°
2026-04-15 06:17 2.48065 102.44214 32525 ft 485 kts 288°
2026-04-15 06:17 2.49170 102.41026 32785 ft 485 kts 288°
2026-04-15 06:17 2.49917 102.38871 32890 ft 486 kts 288°
2026-04-15 06:18 2.51015 102.35701 33003 ft 489 kts 288°
2026-04-15 06:18 2.52130 102.32484 33237 ft 489 kts 288°
2026-04-15 06:18 2.53242 102.29275 33506 ft 488 kts 288°
2026-04-15 06:18 2.54353 102.26071 33757 ft 488 kts 288°
2026-04-15 06:19 2.55464 102.22864 33974 ft 488 kts 288°
2026-04-15 06:19 2.56573 102.19662 34173 ft 487 kts 288°
2026-04-15 06:19 2.57683 102.16458 34339 ft 488 kts 288°
2026-04-15 06:19 2.58793 102.13255 34530 ft 488 kts 288°
2026-04-15 06:20 2.59903 102.10050 34716 ft 487 kts 288°
2026-04-15 06:20 2.61011 102.06851 34905 ft 487 kts 288°
2026-04-15 06:20 2.62118 102.03654 35162 ft 484 kts 289°
2026-04-15 06:20 2.63214 102.00488 35519 ft 480 kts 289°
2026-04-15 06:21 2.64306 101.97334 35709 ft 479 kts 289°
2026-04-15 06:21 2.65395 101.94189 35841 ft 480 kts 289°
2026-04-15 06:21 2.66490 101.91027 35980 ft 480 kts 289°
2026-04-15 06:21 2.67582 101.87872 36130 ft 480 kts 289°
2026-04-15 06:22 2.68675 101.84714 36279 ft 480 kts 289°
2026-04-15 06:22 2.69766 101.81560 36426 ft 480 kts 289°
2026-04-15 06:22 2.70858 101.78405 36566 ft 480 kts 289°
2026-04-15 06:22 2.71941 101.75296 36712 ft 480 kts 290°
2026-04-15 06:23 2.73242 101.72220 36847 ft 480 kts 294°
2026-04-15 06:23 2.74611 101.69173 36982 ft 480 kts 294°
2026-04-15 06:23 2.76008 101.66144 37151 ft 479 kts 295°
2026-04-15 06:23 2.77419 101.63128 37329 ft 478 kts 295°
2026-04-15 06:24 2.78833 101.60122 37468 ft 478 kts 295°
2026-04-15 06:24 2.80252 101.57108 37591 ft 478 kts 295°
2026-04-15 06:24 2.81666 101.54101 37718 ft 478 kts 295°
2026-04-15 06:24 2.83079 101.51091 37854 ft 478 kts 295°
2026-04-15 06:25 2.84490 101.48080 37857 ft 478 kts 295°
2026-04-15 06:25 2.87310 101.42054 37853 ft 478 kts 295°
2026-04-15 06:26 2.90123 101.36039 37865 ft 477 kts 295°
2026-04-15 06:26 2.92939 101.30022 37866 ft 477 kts 295°
2026-04-15 06:27 2.95764 101.24014 37861 ft 477 kts 295°
2026-04-15 06:27 2.98573 101.18045 37859 ft 477 kts 295°
2026-04-15 06:28 3.01390 101.12041 37859 ft 474 kts 294°
2026-04-15 06:28 3.04147 101.06079 37854 ft 471 kts 294°
2026-04-15 06:29 3.06886 101.00125 37854 ft 471 kts 294°
2026-04-15 06:29 3.09640 100.94177 37865 ft 471 kts 294°
2026-04-15 06:30 3.12416 100.88235 37859 ft 471 kts 294°
2026-04-15 06:30 3.15192 100.82301 37862 ft 471 kts 294°
2026-04-15 06:31 3.17966 100.76366 37863 ft 471 kts 294°
2026-04-15 06:31 3.20738 100.70430 37854 ft 471 kts 294°
2026-04-15 06:32 3.23493 100.64528 37858 ft 471 kts 294°
2026-04-15 06:32 3.26265 100.58591 37864 ft 471 kts 294°
2026-04-15 06:33 3.29042 100.52641 37860 ft 473 kts 294°
2026-04-15 06:33 3.31838 100.46648 37861 ft 476 kts 294°
2026-04-15 06:34 3.34640 100.40642 37863 ft 476 kts 294°
2026-04-15 06:34 3.37440 100.34640 37852 ft 476 kts 294°
2026-04-15 06:35 3.39704 100.28455 37863 ft 472 kts 279°
2026-04-15 06:35 3.40490 100.21952 37860 ft 471 kts 272°
2026-04-15 06:36 3.40914 100.15449 37868 ft 472 kts 272°
2026-04-15 06:36 3.41281 100.08869 37855 ft 474 kts 272°
2026-04-15 06:37 3.41670 100.02278 37855 ft 474 kts 272°
2026-04-15 06:37 3.42077 99.95696 37859 ft 474 kts 272°
2026-04-15 06:38 3.42492 99.89110 37852 ft 474 kts 272°
2026-04-15 06:38 3.42905 99.82525 37855 ft 474 kts 272°
2026-04-15 06:39 3.43319 99.75910 37864 ft 478 kts 272°
2026-04-15 06:39 3.43735 99.69257 37857 ft 480 kts 272°
2026-04-15 06:40 3.44151 99.62591 37866 ft 479 kts 272°
2026-04-15 06:40 3.44566 99.55935 37848 ft 479 kts 272°
2026-04-15 06:41 3.44981 99.49281 37844 ft 479 kts 272°
2026-04-15 06:41 3.45394 99.42628 37846 ft 478 kts 272°
2026-04-15 06:42 3.45806 99.35996 37861 ft 477 kts 272°
2026-04-15 06:42 3.46214 99.29419 37852 ft 477 kts 272°
2026-04-15 06:43 3.46627 99.22753 37862 ft 477 kts 272°
2026-04-15 06:43 3.47035 99.16173 37849 ft 477 kts 272°
2026-04-15 06:44 3.47445 99.09549 37852 ft 477 kts 272°
2026-04-15 06:44 3.47853 99.02938 37858 ft 474 kts 272°
2026-04-15 06:45 3.48259 98.96369 37853 ft 472 kts 272°
2026-04-15 06:45 3.48662 98.89807 37852 ft 472 kts 272°
2026-04-15 06:46 3.49066 98.83245 37852 ft 472 kts 272°
2026-04-15 06:46 3.49470 98.76681 37852 ft 472 kts 272°
2026-04-15 06:47 3.49873 98.70122 37851 ft 473 kts 272°
2026-04-15 06:47 3.50333 98.63525 37852 ft 478 kts 277°
2026-04-15 06:48 3.52163 98.57115 37855 ft 482 kts 291°
2026-04-15 06:48 3.54835 98.50957 37853 ft 483 kts 294°
2026-04-15 06:49 3.57663 98.44862 37861 ft 483 kts 294°
2026-04-15 06:49 3.60493 98.38763 37864 ft 483 kts 294°
2026-04-15 06:50 3.64688 98.29607 37853 ft 481 kts 294°
2026-04-15 06:50 3.67444 98.23567 37855 ft 480 kts 294°
2026-04-15 06:51 3.70209 98.17502 37879 ft 479 kts 294°
2026-04-15 06:51 3.72984 98.11417 37875 ft 480 kts 294°
2026-04-15 06:52 3.75758 98.05335 37885 ft 480 kts 294°
2026-04-15 06:52 3.78529 97.99258 37890 ft 480 kts 294°
2026-04-15 06:53 3.81299 97.93180 37890 ft 478 kts 294°
2026-04-15 06:53 3.84054 97.87137 37908 ft 476 kts 294°
2026-04-15 06:54 3.86804 97.81100 37909 ft 477 kts 294°
2026-04-15 06:54 3.89560 97.75051 37906 ft 478 kts 294°
2026-04-15 06:55 3.92317 97.68997 37945 ft 477 kts 294°
2026-04-15 06:55 3.95070 97.62952 37935 ft 477 kts 294°
2026-04-15 06:56 3.97814 97.56924 37945 ft 476 kts 294°
2026-04-15 06:56 4.00572 97.50864 37948 ft 478 kts 294°
2026-04-15 06:57 4.03314 97.44839 37948 ft 479 kts 294°
2026-04-15 06:57 4.06074 97.38773 37941 ft 478 kts 294°
2026-04-15 06:58 4.08831 97.32711 37941 ft 478 kts 294°
2026-04-15 06:58 4.11582 97.26662 37941 ft 477 kts 294°
2026-04-15 06:59 4.14335 97.20605 37941 ft 478 kts 294°
2026-04-15 06:59 4.17090 97.14543 37938 ft 479 kts 294°
2026-04-15 07:00 4.19849 97.08474 37941 ft 478 kts 294°
2026-04-15 07:00 4.22604 97.02409 37944 ft 478 kts 294°
2026-04-15 07:01 4.25358 96.96343 37925 ft 477 kts 294°
2026-04-15 07:01 4.28107 96.90288 37933 ft 478 kts 294°
2026-04-15 07:02 4.30862 96.84220 37928 ft 479 kts 294°
2026-04-15 07:02 4.33612 96.78162 37925 ft 475 kts 294°
2026-04-15 07:03 4.36342 96.72145 37918 ft 473 kts 294°
2026-04-15 07:03 4.39064 96.66143 37908 ft 473 kts 294°
2026-04-15 07:04 4.41773 96.60171 37927 ft 474 kts 294°
2026-04-15 07:04 4.44499 96.54159 37918 ft 474 kts 294°
2026-04-15 07:05 4.46785 96.49115 37896 ft 474 kts 294°
2026-04-15 07:05 4.49514 96.43094 37899 ft 476 kts 294°
2026-04-15 07:06 4.52265 96.37023 37881 ft 481 kts 294°
2026-04-15 07:06 4.55479 96.29926 37892 ft 481 kts 294°
2026-04-15 07:07 4.57794 96.24815 37895 ft 479 kts 294°
2026-04-15 07:07 4.60544 96.18739 37873 ft 478 kts 294°
2026-04-15 07:08 4.63276 96.12703 37880 ft 478 kts 294°
2026-04-15 07:08 4.66022 96.06634 37866 ft 478 kts 294°
2026-04-15 07:09 4.68765 96.00570 37868 ft 478 kts 294°
2026-04-15 07:09 4.71510 95.94500 37876 ft 478 kts 294°
2026-04-15 07:10 4.74254 95.88430 37865 ft 478 kts 294°
2026-04-15 07:10 4.76996 95.82363 37876 ft 477 kts 294°
2026-04-15 07:11 4.79737 95.76299 37864 ft 478 kts 294°
2026-04-15 07:11 4.82479 95.70229 37861 ft 478 kts 294°
2026-04-15 07:12 4.85217 95.64166 37859 ft 477 kts 294°
2026-04-15 07:12 4.87950 95.58112 37862 ft 476 kts 294°
2026-04-15 07:13 4.90682 95.52060 37864 ft 476 kts 294°
2026-04-15 07:13 4.93413 95.46008 37857 ft 477 kts 294°
2026-04-15 07:14 4.96135 95.39974 37850 ft 479 kts 294°
2026-04-15 07:14 4.98883 95.33879 37862 ft 480 kts 294°
2026-04-15 07:15 5.01629 95.27789 37856 ft 477 kts 294°
2026-04-15 07:15 5.04355 95.21739 37852 ft 475 kts 294°
2026-04-15 07:16 5.07079 95.15694 37849 ft 475 kts 294°
2026-04-15 07:16 5.09801 95.09652 37841 ft 475 kts 294°
2026-04-15 07:17 5.12524 95.03604 37849 ft 475 kts 294°
2026-04-15 07:17 5.15244 94.97563 37845 ft 475 kts 294°
2026-04-15 07:18 5.17963 94.91521 37842 ft 474 kts 294°
2026-04-15 07:18 5.20657 94.85534 37846 ft 474 kts 294°
2026-04-15 07:19 5.23366 94.79510 37845 ft 474 kts 294°
2026-04-15 07:19 5.26077 94.73483 37842 ft 473 kts 294°
2026-04-15 07:20 5.28783 94.67462 37848 ft 473 kts 294°
2026-04-15 07:20 5.31490 94.61438 37842 ft 473 kts 294°
2026-04-15 07:21 5.34196 94.55415 37850 ft 473 kts 294°
2026-04-15 07:21 5.36898 94.49400 37841 ft 472 kts 294°
2026-04-15 07:22 5.39597 94.43389 37859 ft 472 kts 294°
2026-04-15 07:22 5.42293 94.37382 37844 ft 472 kts 294°
2026-04-15 07:23 5.44969 94.31418 37844 ft 472 kts 294°
2026-04-15 07:23 5.47661 94.25416 37841 ft 472 kts 294°
2026-04-15 07:24 5.50358 94.19401 37844 ft 472 kts 294°
2026-04-15 07:24 5.53053 94.13390 37844 ft 472 kts 294°
2026-04-15 07:25 5.55742 94.07389 37859 ft 471 kts 294°
2026-04-15 07:25 5.58431 94.01387 37849 ft 471 kts 294°
2026-04-15 07:26 5.61122 93.95380 37846 ft 471 kts 294°
2026-04-15 07:26 5.63810 93.89375 37844 ft 471 kts 294°
2026-04-15 07:27 5.66498 93.83368 37843 ft 471 kts 294°
2026-04-15 07:27 5.69168 93.77403 37842 ft 472 kts 294°
2026-04-15 07:28 5.71857 93.71391 37843 ft 472 kts 294°
2026-04-15 07:28 5.74543 93.65382 37843 ft 471 kts 294°
2026-04-15 07:29 5.77228 93.59376 37842 ft 471 kts 294°
2026-04-15 07:29 5.79911 93.53370 37847 ft 471 kts 294°
2026-04-15 07:30 5.82594 93.47364 37848 ft 471 kts 294°
2026-04-15 07:30 5.85277 93.41356 37849 ft 471 kts 294°
2026-04-15 07:31 5.87960 93.35345 37849 ft 471 kts 294°
2026-04-15 07:31 5.90640 93.29339 37848 ft 471 kts 294°
2026-04-15 07:32 5.93322 93.23328 37847 ft 471 kts 294°
2026-04-15 07:32 5.96003 93.17315 37847 ft 471 kts 294°
2026-04-15 07:33 5.98682 93.11307 37848 ft 471 kts 294°
2026-04-15 07:33 6.01375 93.05306 37848 ft 471 kts 294°
2026-04-15 07:34 6.04113 92.99304 37848 ft 473 kts 294°
2026-04-15 07:34 6.06862 92.93291 37849 ft 474 kts 294°
2026-04-15 07:35 6.09592 92.87310 37848 ft 473 kts 294°
2026-04-15 07:35 6.12330 92.81302 37848 ft 473 kts 294°
2026-04-15 07:36 6.15066 92.75294 37848 ft 473 kts 294°
2026-04-15 07:36 6.17802 92.69284 37848 ft 473 kts 294°
2026-04-15 07:37 6.20539 92.63271 37848 ft 474 kts 294°
2026-04-15 07:37 6.23290 92.57223 37850 ft 476 kts 294°
2026-04-15 07:38 6.26047 92.51162 37848 ft 476 kts 294°
2026-04-15 07:38 6.28801 92.45104 37848 ft 476 kts 294°
2026-04-15 07:39 6.31553 92.39048 37845 ft 476 kts 294°
2026-04-15 07:39 6.34306 92.32988 37846 ft 477 kts 294°
2026-04-15 07:40 6.37059 92.26927 37847 ft 477 kts 294°
2026-04-15 07:40 6.39816 92.20853 37848 ft 478 kts 294°
2026-04-15 07:41 6.42577 92.14769 37845 ft 478 kts 294°
2026-04-15 07:41 6.45338 92.08683 37849 ft 478 kts 294°
2026-04-15 07:42 6.48097 92.02599 37849 ft 478 kts 294°
2026-04-15 07:42 6.50837 91.96555 37848 ft 478 kts 294°
2026-04-15 07:43 6.53595 91.90469 37847 ft 478 kts 294°
2026-04-15 07:43 6.56354 91.84379 37849 ft 478 kts 294°
2026-04-15 07:44 6.59110 91.78292 37848 ft 478 kts 294°
2026-04-15 07:44 6.61866 91.72204 37849 ft 478 kts 294°
2026-04-15 07:45 6.64622 91.66111 37842 ft 478 kts 294°
2026-04-15 07:45 6.67378 91.60017 37843 ft 478 kts 294°
2026-04-15 07:46 6.70133 91.53925 37845 ft 478 kts 294°
2026-04-15 07:46 6.72883 91.47840 37844 ft 477 kts 294°
2026-04-15 07:47 6.75623 91.41774 37845 ft 476 kts 294°
2026-04-15 07:47 6.78359 91.35717 37845 ft 476 kts 294°
2026-04-15 07:48 6.81099 91.29645 37845 ft 476 kts 294°
2026-04-15 07:48 6.83835 91.23581 37846 ft 476 kts 294°
2026-04-15 07:49 6.86573 91.17513 37844 ft 477 kts 294°
2026-04-15 07:49 6.89313 91.11434 37842 ft 477 kts 294°
2026-04-15 07:50 6.92036 91.05393 37842 ft 477 kts 294°
2026-04-15 07:50 6.94776 90.99311 37842 ft 477 kts 294°
2026-04-15 07:51 6.97515 90.93230 37842 ft 477 kts 294°
2026-04-15 07:51 7.00253 90.87148 37845 ft 477 kts 294°
2026-04-15 07:52 7.02990 90.81064 37845 ft 477 kts 294°
2026-04-15 07:52 7.05725 90.74984 37842 ft 477 kts 294°
2026-04-15 07:53 7.08464 90.68893 37845 ft 478 kts 294°
2026-04-15 07:53 7.10747 90.63814 37845 ft 478 kts 294°
2026-04-15 07:54 7.13490 90.57708 37846 ft 478 kts 294°
2026-04-15 07:54 7.16232 90.51602 37845 ft 478 kts 294°
2026-04-15 07:55 7.18973 90.45496 37845 ft 478 kts 294°
2026-04-15 07:56 7.23081 90.36341 37843 ft 478 kts 294°
2026-04-15 07:56 7.25810 90.30255 37845 ft 476 kts 294°
2026-04-15 07:57 7.28535 90.24175 37849 ft 476 kts 294°
2026-04-15 07:57 7.31258 90.18097 37846 ft 476 kts 294°
2026-04-15 07:58 7.33981 90.12018 37844 ft 476 kts 294°
2026-04-15 07:58 7.36686 90.05977 37844 ft 476 kts 294°
2026-04-15 07:59 7.39407 89.99895 37852 ft 476 kts 294°
2026-04-15 07:59 7.42123 89.93824 37844 ft 474 kts 294°
2026-04-15 08:00 7.44828 89.87774 37842 ft 473 kts 294°
2026-04-15 08:00 7.47533 89.81723 37846 ft 473 kts 294°
2026-04-15 08:01 7.50234 89.75676 37846 ft 474 kts 294°
2026-04-15 08:01 7.52939 89.69619 37844 ft 473 kts 294°
2026-04-15 08:02 7.55639 89.63569 37845 ft 473 kts 294°
2026-04-15 08:02 7.58344 89.57507 37843 ft 473 kts 294°
2026-04-15 08:03 7.61042 89.51457 37838 ft 473 kts 294°
2026-04-15 08:03 7.63719 89.45451 37842 ft 472 kts 294°
2026-04-15 08:04 7.66411 89.39409 37843 ft 472 kts 294°
2026-04-15 08:04 7.69103 89.33367 37842 ft 472 kts 294°
2026-04-15 08:05 7.71831 89.27343 37844 ft 472 kts 294°
2026-04-15 08:05 7.74586 89.21326 37842 ft 472 kts 295°
2026-04-15 08:06 7.77332 89.15324 37842 ft 471 kts 295°
2026-04-15 08:06 7.80071 89.09328 37843 ft 471 kts 295°
2026-04-15 08:07 7.82805 89.03332 37840 ft 471 kts 295°
2026-04-15 08:07 7.85540 88.97331 37840 ft 471 kts 295°
2026-04-15 08:08 7.88272 88.91332 37842 ft 471 kts 295°
2026-04-15 08:08 7.91004 88.85333 37836 ft 471 kts 295°
2026-04-15 08:09 7.93737 88.79330 37839 ft 471 kts 295°
2026-04-15 08:09 7.96449 88.73368 37841 ft 471 kts 295°
2026-04-15 08:10 7.99179 88.67365 37837 ft 471 kts 295°
2026-04-15 08:10 8.01908 88.61363 37837 ft 471 kts 295°
2026-04-15 08:11 8.04653 88.55320 37840 ft 471 kts 295°
2026-04-15 08:11 8.07363 88.49355 37841 ft 471 kts 295°
2026-04-15 08:12 8.10088 88.43351 37837 ft 470 kts 295°
2026-04-15 08:12 8.12811 88.37349 37837 ft 470 kts 295°
2026-04-15 08:13 8.15534 88.31346 37836 ft 470 kts 295°
2026-04-15 08:13 8.18255 88.25342 37837 ft 470 kts 295°
2026-04-15 08:14 8.20976 88.19339 37841 ft 470 kts 295°
2026-04-15 08:14 8.23696 88.13332 37834 ft 470 kts 295°
2026-04-15 08:15 8.26414 88.07329 37833 ft 470 kts 294°
2026-04-15 08:15 8.29127 88.01332 37834 ft 469 kts 294°
2026-04-15 08:16 8.31838 87.95338 37842 ft 469 kts 295°
2026-04-15 08:16 8.34548 87.89345 37840 ft 469 kts 295°
2026-04-15 08:17 8.37252 87.83359 37851 ft 468 kts 295°
2026-04-15 08:17 8.39949 87.77388 37842 ft 468 kts 295°
2026-04-15 08:18 8.42650 87.71403 37835 ft 468 kts 295°
2026-04-15 08:18 8.45347 87.65428 37833 ft 467 kts 295°
2026-04-15 08:19 8.48021 87.59498 37843 ft 467 kts 295°
2026-04-15 08:19 8.50711 87.53531 37833 ft 467 kts 294°
2026-04-15 08:20 8.53399 87.47564 37839 ft 467 kts 294°
2026-04-15 08:20 8.56086 87.41598 37851 ft 467 kts 294°
2026-04-15 08:21 8.58774 87.35626 37840 ft 467 kts 294°
2026-04-15 08:21 8.61460 87.29656 37841 ft 466 kts 294°
2026-04-15 08:22 8.64144 87.23688 37833 ft 466 kts 294°
2026-04-15 08:22 8.66823 87.17728 37849 ft 466 kts 294°
2026-04-15 08:23 8.69502 87.11764 37841 ft 466 kts 294°
2026-04-15 08:23 8.72179 87.05803 37839 ft 465 kts 294°
2026-04-15 08:24 8.74850 86.99851 37842 ft 465 kts 294°
2026-04-15 08:24 8.77519 86.93903 37835 ft 464 kts 294°
2026-04-15 08:25 8.80166 86.87999 37829 ft 464 kts 294°
2026-04-15 08:25 8.82830 86.82055 37835 ft 464 kts 294°
2026-04-15 08:26 8.85490 86.76115 37839 ft 464 kts 294°
2026-04-15 08:26 8.88150 86.70175 37844 ft 464 kts 294°
2026-04-15 08:27 8.90812 86.64226 37845 ft 464 kts 294°
2026-04-15 08:27 8.93470 86.58284 37833 ft 464 kts 294°
2026-04-15 08:28 8.96128 86.52339 37835 ft 464 kts 294°
2026-04-15 08:28 8.98785 86.46390 37839 ft 464 kts 294°
2026-04-15 08:29 9.01442 86.40441 37844 ft 464 kts 294°
2026-04-15 08:29 9.04100 86.34487 37840 ft 464 kts 294°
2026-04-15 08:30 9.06755 86.28535 37839 ft 464 kts 294°
2026-04-15 08:30 9.09388 86.22630 37841 ft 462 kts 294°
2026-04-15 08:31 9.12030 86.16702 37836 ft 462 kts 294°
2026-04-15 08:31 9.14668 86.10781 37833 ft 461 kts 294°
2026-04-15 08:32 9.17301 86.04866 37844 ft 461 kts 294°
2026-04-15 08:32 9.19935 85.98947 37835 ft 461 kts 294°
2026-04-15 08:33 9.22567 85.93031 37833 ft 461 kts 294°
2026-04-15 08:33 9.25203 85.87110 37832 ft 461 kts 294°
2026-04-15 08:34 9.27909 85.81215 37829 ft 461 kts 295°
2026-04-15 08:34 9.30646 85.75342 37840 ft 461 kts 295°
2026-04-15 08:35 9.33381 85.69469 37828 ft 461 kts 295°
2026-04-15 08:35 9.36111 85.63587 37833 ft 461 kts 295°
2026-04-15 08:36 9.38837 85.57701 37841 ft 461 kts 295°
2026-04-15 08:36 9.41542 85.51859 37841 ft 461 kts 295°
2026-04-15 08:37 9.44264 85.45976 37830 ft 461 kts 294°
2026-04-15 08:37 9.46976 85.40115 37824 ft 458 kts 294°
2026-04-15 08:38 9.49675 85.34274 37827 ft 458 kts 294°
2026-04-15 08:38 9.52375 85.28427 37844 ft 458 kts 294°
2026-04-15 08:39 9.55073 85.22585 37841 ft 458 kts 294°
2026-04-15 08:39 9.57770 85.16741 37827 ft 458 kts 294°
2026-04-15 08:40 9.60468 85.10893 37831 ft 458 kts 294°
2026-04-15 08:40 9.63163 85.05047 37831 ft 458 kts 294°
2026-04-15 08:41 9.65403 85.00187 37827 ft 458 kts 294°
2026-04-15 08:41 9.68536 84.93386 37829 ft 458 kts 294°
2026-04-15 08:42 9.71232 84.87528 37821 ft 458 kts 294°
2026-04-15 08:42 9.73928 84.81668 37834 ft 459 kts 294°
2026-04-15 08:43 9.76623 84.75809 37824 ft 459 kts 294°
2026-04-15 08:43 9.78862 84.70938 37822 ft 458 kts 294°
2026-04-15 08:44 9.81555 84.65075 37821 ft 459 kts 294°
2026-04-15 08:44 9.84252 84.59200 37824 ft 460 kts 294°
2026-04-15 08:45 9.86953 84.53316 37818 ft 460 kts 294°
2026-04-15 08:45 9.89653 84.47429 37832 ft 460 kts 294°
2026-04-15 08:46 9.92352 84.41541 37819 ft 460 kts 294°
2026-04-15 08:46 9.95053 84.35645 37827 ft 460 kts 294°
2026-04-15 08:47 9.97753 84.29749 37823 ft 460 kts 294°
2026-04-15 08:47 10.00453 84.23848 37833 ft 461 kts 295°
2026-04-15 08:48 10.03156 84.17939 37832 ft 462 kts 294°
2026-04-15 08:48 10.05859 84.12028 37819 ft 462 kts 294°
2026-04-15 08:49 10.08562 84.06112 37829 ft 462 kts 294°
2026-04-15 08:49 10.11263 84.00197 37825 ft 462 kts 294°
2026-04-15 08:50 10.13962 83.94282 37820 ft 462 kts 294°
2026-04-15 08:50 10.16643 83.88405 37825 ft 461 kts 295°
2026-04-15 08:51 10.19337 83.82494 37825 ft 461 kts 294°
2026-04-15 08:51 10.22031 83.76582 37827 ft 461 kts 294°
2026-04-15 08:52 10.24724 83.70669 37814 ft 461 kts 294°
2026-04-15 08:52 10.27415 83.64756 37816 ft 461 kts 294°
2026-04-15 08:53 10.30106 83.58839 37819 ft 461 kts 294°
2026-04-15 08:53 10.32795 83.52924 37818 ft 461 kts 295°
2026-04-15 08:54 10.35486 83.47001 37825 ft 462 kts 294°
2026-04-15 08:54 10.38177 83.41074 37826 ft 462 kts 294°
2026-04-15 08:55 10.40867 83.35146 37816 ft 462 kts 294°
2026-04-15 08:55 10.43557 83.29216 37814 ft 462 kts 294°
2026-04-15 08:56 10.46243 83.23289 37813 ft 462 kts 294°
2026-04-15 08:56 10.48932 83.17354 37825 ft 462 kts 294°
2026-04-15 08:57 10.51618 83.11421 37825 ft 462 kts 294°
2026-04-15 08:57 10.54303 83.05488 37810 ft 462 kts 294°
2026-04-15 08:58 10.56987 82.99553 37826 ft 462 kts 294°
2026-04-15 08:58 10.61012 82.90646 37821 ft 462 kts 294°
2026-04-15 08:59 10.63083 82.84496 37810 ft 461 kts 278°
2026-04-15 08:59 10.63642 82.78049 37811 ft 461 kts 273°
2026-04-15 09:00 10.63886 82.71532 37814 ft 462 kts 272°
2026-04-15 09:00 10.64078 82.65009 37815 ft 462 kts 272°
2026-04-15 09:01 10.64294 82.58485 37812 ft 462 kts 272°
2026-04-15 09:01 10.64529 82.51962 37815 ft 462 kts 272°
2026-04-15 09:02 10.64770 82.45439 37811 ft 462 kts 272°
2026-04-15 09:02 10.65009 82.38916 37821 ft 462 kts 272°
2026-04-15 09:03 10.65245 82.32388 37826 ft 462 kts 272°
2026-04-15 09:03 10.65480 82.25863 37811 ft 462 kts 272°
2026-04-15 09:04 10.65714 82.19341 37808 ft 462 kts 272°
2026-04-15 09:04 10.65945 82.12818 37809 ft 462 kts 272°
2026-04-15 09:05 10.66176 82.06296 37812 ft 462 kts 272°
2026-04-15 09:05 10.66404 81.99813 37812 ft 462 kts 272°
2026-04-15 09:06 10.66632 81.93288 37811 ft 462 kts 272°
2026-04-15 09:06 10.66859 81.86766 37811 ft 462 kts 272°
2026-04-15 09:07 10.67084 81.80241 37805 ft 462 kts 272°
2026-04-15 09:07 10.67308 81.73710 37806 ft 462 kts 272°
2026-04-15 09:08 10.67531 81.67184 37808 ft 462 kts 272°
2026-04-15 09:08 10.67752 81.60657 37815 ft 461 kts 272°
2026-04-15 09:09 10.67972 81.54138 37809 ft 461 kts 272°
2026-04-15 09:09 10.68190 81.47623 37815 ft 461 kts 272°
2026-04-15 09:10 10.68407 81.41107 37807 ft 461 kts 272°
2026-04-15 09:10 10.68622 81.34593 37809 ft 461 kts 272°
2026-04-15 09:11 10.68836 81.28078 37805 ft 461 kts 272°
2026-04-15 09:11 10.69049 81.21563 37823 ft 461 kts 272°
2026-04-15 09:12 10.69260 81.15052 37806 ft 461 kts 272°
2026-04-15 09:12 10.69470 81.08539 37806 ft 461 kts 272°
2026-04-15 09:13 10.69677 81.02079 37809 ft 461 kts 272°
2026-04-15 09:13 10.69886 80.95517 37805 ft 461 kts 272°
2026-04-15 09:14 10.70092 80.89005 37803 ft 461 kts 272°
2026-04-15 09:14 10.70295 80.82538 37807 ft 461 kts 272°
2026-04-15 09:15 10.70498 80.76027 37805 ft 461 kts 272°
2026-04-15 09:15 10.70700 80.69508 37806 ft 461 kts 272°
2026-04-15 09:16 10.70901 80.62995 37803 ft 461 kts 272°
2026-04-15 09:16 10.71001 80.59746 37662 ft 458 kts 272°
2026-04-15 09:16 10.71099 80.56526 37198 ft 454 kts 272°
2026-04-15 09:17 10.71196 80.53327 36656 ft 452 kts 272°
2026-04-15 09:17 10.71293 80.50134 36064 ft 452 kts 272°
2026-04-15 09:17 10.71390 80.46933 35385 ft 454 kts 272°
2026-04-15 09:17 10.71486 80.43719 34731 ft 456 kts 272°
2026-04-15 09:18 10.71583 80.40490 34106 ft 457 kts 272°
2026-04-15 09:18 10.71680 80.37251 33336 ft 460 kts 272°
2026-04-15 09:18 10.71777 80.33985 32489 ft 465 kts 272°
2026-04-15 09:18 10.71875 80.30690 31697 ft 468 kts 272°
2026-04-15 09:19 10.71973 80.27374 30912 ft 471 kts 272°
2026-04-15 09:19 10.72072 80.24038 30097 ft 474 kts 272°
2026-04-15 09:19 10.72171 80.20673 29334 ft 476 kts 272°
2026-04-15 09:19 10.72269 80.17327 28750 ft 472 kts 272°
2026-04-15 09:20 10.72366 80.14009 28130 ft 469 kts 272°
2026-04-15 09:20 10.72461 80.10708 27556 ft 465 kts 272°
2026-04-15 09:20 10.72554 80.07429 26992 ft 462 kts 272°
2026-04-15 09:20 10.72643 80.04182 26429 ft 459 kts 272°
2026-04-15 09:21 10.72730 80.00940 25843 ft 457 kts 272°
2026-04-15 09:21 10.72817 79.97712 25293 ft 455 kts 272°
2026-04-15 09:21 10.72902 79.94513 24812 ft 451 kts 272°
2026-04-15 09:21 10.72986 79.91343 24313 ft 447 kts 272°
2026-04-15 09:22 10.73069 79.88190 23763 ft 445 kts 272°
2026-04-15 09:22 10.73151 79.85091 23191 ft 444 kts 272°
2026-04-15 09:22 10.73234 79.81961 22629 ft 440 kts 272°
2026-04-15 09:22 10.73315 79.78861 22068 ft 437 kts 272°
2026-04-15 09:23 10.73396 79.75786 21495 ft 433 kts 272°
2026-04-15 09:23 10.73475 79.72731 20913 ft 431 kts 272°
2026-04-15 09:23 10.73565 79.69696 20338 ft 428 kts 273°
2026-04-15 09:23 10.73733 79.66678 19770 ft 426 kts 274°
2026-04-15 09:24 10.73928 79.63682 19223 ft 424 kts 274°
2026-04-15 09:24 10.74124 79.60702 18676 ft 421 kts 274°
2026-04-15 09:24 10.74318 79.57736 18132 ft 420 kts 274°
2026-04-15 09:24 10.74509 79.54785 17544 ft 417 kts 274°
2026-04-15 09:25 10.74698 79.51859 17022 ft 412 kts 274°
2026-04-15 09:25 10.74884 79.48963 16501 ft 408 kts 274°
2026-04-15 09:25 10.75064 79.46136 16004 ft 403 kts 274°
2026-04-15 09:25 10.75245 79.43303 15494 ft 399 kts 274°
2026-04-15 09:26 10.75424 79.40498 14980 ft 396 kts 274°
2026-04-15 09:26 10.75600 79.37726 14594 ft 387 kts 274°
2026-04-15 09:26 10.75771 79.35034 14085 ft 376 kts 274°
2026-04-15 09:26 10.75938 79.32411 13509 ft 368 kts 274°
2026-04-15 09:27 10.76100 79.29845 12888 ft 360 kts 275°
2026-04-15 09:27 10.76259 79.27327 12269 ft 353 kts 275°
2026-04-15 09:27 10.76415 79.24853 11663 ft 347 kts 275°
2026-04-15 09:27 10.76568 79.22422 11063 ft 342 kts 275°
2026-04-15 09:28 10.76719 79.20028 10480 ft 337 kts 276°
2026-04-15 09:28 10.76868 79.17667 9904 ft 332 kts 276°
2026-04-15 09:28 10.77014 79.15339 9302 ft 328 kts 276°
2026-04-15 09:28 10.77159 79.13042 8683 ft 323 kts 276°
2026-04-15 09:29 10.77303 79.10771 8071 ft 320 kts 275°
2026-04-15 09:29 10.77397 79.09281 7674 ft 318 kts 275°
2026-04-15 09:29 10.77584 79.06300 6889 ft 314 kts 275°
2026-04-15 09:29 10.77721 79.04122 6318 ft 312 kts 274°
2026-04-15 09:30 10.77858 79.01934 5727 ft 309 kts 274°
2026-04-15 09:30 10.77993 78.99763 5133 ft 306 kts 274°
2026-04-15 09:30 10.78127 78.97616 4544 ft 302 kts 273°
2026-04-15 09:30 10.78217 78.96178 4158 ft 299 kts 273°
2026-04-15 09:31 10.78345 78.94118 3890 ft 284 kts 272°
2026-04-15 09:31 10.78319 78.91557 3595 ft 264 kts 265°
2026-04-15 09:31 10.78177 78.89749 3395 ft 250 kts 264°
2026-04-15 09:31 10.78085 78.88596 3219 ft 244 kts 263°
2026-04-15 09:32 10.77889 78.86367 2766 ft 231 kts 263°
2026-04-15 09:32 10.77796 78.85305 2549 ft 225 kts 264°
2026-04-15 09:32 10.77664 78.83761 2242 ft 215 kts 264°
2026-04-15 09:32 10.77536 78.82287 1997 ft 202 kts 264°
2026-04-15 09:33 10.77418 78.80911 1748 ft 189 kts 263°
2026-04-15 09:33 10.77308 78.79630 1563 ft 172 kts 262°
2026-04-15 09:33 10.77208 78.78470 1320 ft 158 kts 262°
2026-04-15 09:33 10.77114 78.77385 1139 ft 152 kts 263°
2026-04-15 09:34 10.77022 78.76324 958 ft 151 kts 264°
2026-04-15 09:34 10.76931 78.75259 776 ft 153 kts 266°
2026-04-15 09:34 10.76837 78.74192 591 ft 150 kts 264°
2026-04-15 09:34 10.76740 78.73163 375 ft 141 kts 264°
2026-04-15 09:35 10.76657 78.72195 293 ft 128 kts 265°
2026-04-15 09:35 10.76605 78.71537 298 ft 67 kts 265°
2026-04-15 09:35 10.76573 78.71135 301 ft 33 kts 265°
2026-04-15 09:35 10.76559 78.70948 305 ft 24 kts 266°
2026-04-15 09:36 10.76485 78.70879 306 ft 13 kts 198°
2026-04-15 09:36 10.76398 78.70861 305 ft 12 kts 180°
2026-04-15 09:36 10.76322 78.70893 305 ft 12 kts 148°
2026-04-15 09:36 10.76251 78.70938 304 ft 12 kts 149°
2026-04-15 09:37 10.76177 78.70983 304 ft 13 kts 149°
2026-04-15 09:37 10.76121 78.70991 304 ft 7 kts 221°
2026-04-15 09:37 10.76097 78.70957 305 ft 5 kts 241°
2026-04-15 09:37 10.76094 78.70952 305 ft 1 kts 240°
2026-04-15 09:38 10.76093 78.70949 305 ft 0 kts 238°
2026-04-15 09:38 10.76092 78.70949 305 ft 0 kts 238°